Weather History for Toledo, OH

Change the Weather History Date:

Saturday, April 20, 2013

  Actual Average Record
Temperature  
Mean Temperature 36 °F 51 °F  
Max Temperature 43 °F 62 °F 84 °F (1985)
Min Temperature 29 °F 40 °F 21 °F (1897)
Degree Days  
Heating Degree Days 29 14  
Month to date heating degree days 402 353  
Since 1 July heating degree days 5829 5779  
Cooling Degree Days 0 0  
Month to date cooling degree days 0 0  
Year to date cooling degree days 0 0  
Moisture  
Dew Point 23 °F    
Average Humidity 64    
Maximum Humidity 92    
Minimum Humidity 36    
Precipitation  
Precipitation 0.03 in 0.10 in 0.60 in (2009)
Month to date precipitation 3.44 2.13  
Year to date precipitation 10.61 8.73  
Snow  
Snow 0.30 in 0.10 in - ()
Month to date snowfall 0.3 1.2  
Since 1 July snowfall 22.4 37.4  
Snow Depth 0.00 in    
Sea Level Pressure  
Sea Level Pressure 30.11 in    
Wind  
Wind Speed 12 mph (West)    
Max Wind Speed 30 mph    
Max Gust Speed 38 mph    
Visibility 8 miles    
Events Snow    
T = Trace of Precipitation, MM = Missing Value Source: NWS Daily Summary

Daily Weather History Graph

Daily Weather History Graph

Search for Another Location

Airport:

Trip Planner

Search our weather history database for the weather conditions in past years. The results will help you decide how hot, cold, wet, or windy it might be!

Date:

Astronomy

Apr. 20, 2013 Rise Set
Actual Time 6:47 AM EDT 8:21 PM EDT
Civil Twilight 6:18 AM EDT 8:50 PM EDT
Nautical Twilight 5:42 AM EDT 9:26 PM EDT
Astronomical Twilight 5:05 AM EDT 10:03 PM EDT
Moon 3:00 PM EDT (4/20) 3:40 AM EDT (4/20)
Length of Visible Light 14h 32m
Length of Day
13h 34m
Waxing Gibbous, 71% of the Moon is Illuminated
Apr 20
Waxing Gibbous
Apr 25
Full
May 2
Last Quarter
May 9
New
May 18
First Quarter

Hourly Weather History & Observations

Time (EDT) Temp. Windchill Dew Point Humidity Pressure Visibility Wind Dir Wind Speed Gust Speed Precip Events Conditions
12:52 AM 37.0 °F 26.7 °F 28.0 °F 70% 29.84 in 10.0 mi SW 19.6 mph 24.2 mph N/A   Overcast
1:52 AM 37.0 °F 27.4 °F 28.0 °F 70% 29.86 in 10.0 mi WSW 17.3 mph 26.5 mph N/A   Overcast
2:25 AM 35.6 °F 22.5 °F 28.4 °F 75% 29.87 in 1.8 mi West 29.9 mph 38.0 mph N/A   Haze
2:28 AM 33.8 °F 21.6 °F 28.4 °F 81% 29.87 in 0.8 mi West 23.0 mph 38.0 mph 0.00 in Snow Light Snow
2:37 AM 30.2 °F 19.8 °F 28.4 °F 93% 29.87 in 1.0 mi West 13.8 mph 27.6 mph 0.01 in Snow Light Snow
2:41 AM 32.0 °F 23.6 °F 28.4 °F 87% 29.87 in 2.0 mi West 10.4 mph 24.2 mph 0.01 in Snow Light Snow
2:49 AM 30.2 °F 20.8 °F 28.4 °F 93% 29.87 in 9.0 mi West 11.5 mph - 0.01 in   Overcast
2:52 AM 30.9 °F 21.2 °F 28.0 °F 89% 29.89 in 10.0 mi West 12.7 mph - 0.01 in   Mostly Cloudy
3:52 AM 34.0 °F 23.8 °F 28.0 °F 79% 29.90 in 10.0 mi WSW 16.1 mph - N/A   Mostly Cloudy
4:52 AM 34.0 °F 24.6 °F 27.0 °F 75% 29.92 in 10.0 mi WSW 13.8 mph - N/A   Scattered Clouds
5:23 AM 30.2 °F 19.3 °F 28.4 °F 93% 29.93 in 1.8 mi West 15.0 mph 29.9 mph 0.01 in Snow Light Snow
5:29 AM 30.2 °F 19.3 °F 28.4 °F 93% 29.93 in 3.0 mi West 15.0 mph 24.2 mph 0.02 in Snow Light Snow
5:41 AM 30.2 °F 19.3 °F 26.6 °F 86% 29.94 in 9.0 mi West 15.0 mph - 0.02 in   Overcast
5:52 AM 30.9 °F 21.7 °F 26.1 °F 82% 29.97 in 6.0 mi West 11.5 mph - 0.02 in Snow Light Snow
6:52 AM 30.9 °F 22.2 °F 26.1 °F 82% 30.00 in 10.0 mi West 10.4 mph - 0.00 in   Scattered Clouds
7:52 AM 33.1 °F 23.9 °F 25.0 °F 72% 30.05 in 10.0 mi West 12.7 mph - N/A   Scattered Clouds
8:52 AM 34.0 °F 26.0 °F 21.9 °F 61% 30.09 in 10.0 mi WNW 10.4 mph 25.3 mph N/A   Mostly Cloudy
9:52 AM 35.1 °F 24.8 °F 21.0 °F 57% 30.12 in 10.0 mi WNW 17.3 mph 23.0 mph N/A   Mostly Cloudy
10:52 AM 36.0 °F 25.3 °F 19.9 °F 52% 30.16 in 10.0 mi West 19.6 mph 25.3 mph N/A   Overcast
11:52 AM 36.0 °F 25.0 °F 19.0 °F 50% 30.19 in 10.0 mi WNW 20.7 mph 27.6 mph N/A   Overcast
12:52 PM 39.0 °F 29.6 °F 21.9 °F 50% 30.22 in 10.0 mi WNW 18.4 mph 21.9 mph N/A   Overcast
1:52 PM 39.0 °F 30.6 °F 19.0 °F 45% 30.23 in 10.0 mi West 15.0 mph 21.9 mph N/A   Mostly Cloudy
2:52 PM 41.0 °F 32.8 °F 21.0 °F 45% 30.25 in 10.0 mi West 16.1 mph 21.9 mph N/A   Overcast
3:52 PM 42.1 °F 33.9 °F 19.9 °F 41% 30.27 in 10.0 mi West 17.3 mph 24.2 mph N/A   Overcast
4:52 PM 43.0 °F 35.7 °F 18.0 °F 37% 30.29 in 10.0 mi WNW 15.0 mph 25.3 mph N/A   Mostly Cloudy
5:52 PM 41.0 °F 33.1 °F 17.1 °F 38% 30.31 in 10.0 mi WNW 15.0 mph 24.2 mph N/A   Mostly Cloudy
6:52 PM 39.9 °F 32.9 °F 18.0 °F 41% 30.33 in 10.0 mi NW 11.5 mph - N/A   Mostly Cloudy
7:52 PM 39.0 °F 32.3 °F 17.1 °F 41% 30.35 in 10.0 mi NW 10.4 mph - N/A   Clear
8:52 PM 37.0 °F 31.6 °F 18.0 °F 46% 30.38 in 10.0 mi NW 6.9 mph - N/A   Clear
9:52 PM 35.1 °F 32.2 °F 19.0 °F 52% 30.42 in 10.0 mi NW 3.5 mph - N/A   Clear
10:52 PM 33.1 °F 28.7 °F 19.9 °F 59% 30.45 in 10.0 mi NW 4.6 mph - N/A   Clear
11:52 PM 28.9 °F - 19.0 °F 67% 30.46 in 10.0 mi Calm Calm - N/A   Clear